W4BOD Weather Reports


time (UTC)temp
C
wind
direction
speed
KPH
gust
KPH
rain 1hr
cm
rain 24hr
cm
rain mn
cm
humidity
%
barometer
mb
20260901125148 25 355 0.0 1.6 0.00 0.00 0.00 95 1020.5
20260901124643 25 6 0.0 1.6 0.00 0.00 0.00 95 1020.5
20260901124143 25 6 0.0 0.0 0.00 0.00 0.00 95 1020.5
20260901123638 25 7 0.0 1.6 0.00 0.00 0.00 95 1020.5
20260901123137 24 6 0.0 1.6 0.00 0.00 0.00 95 1020.4
20260901122636 24 6 0.0 0.0 0.00 0.00 0.00 95 1020.5
20260901122131 24 6 0.0 1.6 0.00 0.00 0.00 95 1020.5
20260901121625 23 7 0.0 1.6 0.00 0.00 0.00 96 1020.3
20260901121120 23 7 1.6 1.6 0.00 0.00 0.00 96 1020.3
20260901120615 23 5 0.0 0.0 0.00 0.00 0.00 97 1020.3
20260901120110 23 4 0.0 1.6 0.00 0.00 0.00 98 1020.1
20260901115605 23 6 0.0 1.6 0.00 0.00 0.00 98 1020.2
20260901115102 23 2 0.0 0.0 0.00 0.00 0.00 98 1020.1
20260901114558 23 4 0.0 0.0 0.00 0.00 0.00 98 1019.9
20260901114057 23 3 0.0 1.6 0.00 0.00 0.00 99 1019.7
20260901113555 23 3 0.0 0.0 0.00 0.00 0.00 99 1019.7
20260901113051 23 3 0.0 0.0 0.00 0.00 0.00 99 1019.7
20260901112551 23 3 0.0 1.6 0.00 0.00 0.00 99 1019.6
20260901112046 23 2 0.0 0.0 0.00 0.00 0.00 99 1019.4
20260901111544 23 2 0.0 0.0 0.00 0.00 0.00 99 1019.2
20260901111043 23 2 0.0 0.0 0.00 0.00 0.00 99 1019.3
20260901110539 23 2 0.0 0.0 0.00 0.00 0.00 99 1019.2
20260901110035 23 2 0.0 0.0 0.00 0.00 0.00 99 1019.2
20260901105531 23 2 0.0 1.6 0.00 0.00 0.00 99 1019.1
20260901105030 23 2 0.0 1.6 0.00 0.00 0.00 99 1019.3
20260901104527 23 1 0.0 0.0 0.00 0.00 0.00 99 1019.0
20260901104022 23 1 0.0 0.0 0.00 0.00 0.00 99 1019.1
20260901103516 23 1 0.0 0.0 0.00 0.00 0.00 99 1018.9
20260901103012 23 1 0.0 0.0 0.00 0.00 0.00 99 1019.3
20260901102506 23 1 0.0 0.0 0.00 0.00 0.00 99 1019.1
20260901102000 23 2 0.0 0.0 0.00 0.00 0.00 99 1019.1
20260901101455 23 3 0.0 1.6 0.00 0.00 0.00 99 1019.0
20260901100950 23 359 0.0 1.6 0.00 0.00 0.00 99 1019.1
20260901100445 23 359 0.0 0.0 0.00 0.00 0.00 99 1019.0
20260901095944 23 359 0.0 0.0 0.00 0.00 0.00 99 1019.0
20260901095443 23 359 0.0 0.0 0.00 0.00 0.00 99 1019.0
20260901094941 23 359 0.0 0.0 0.00 0.00 0.00 99 1019.0
20260901094441 23 359 0.0 0.0 0.00 0.00 0.00 99 1018.8
20260901093941 23 359 0.0 0.0 0.00 0.00 0.00 99 1018.8
20260901093436 23 359 0.0 0.0 0.00 0.00 0.00 98 1018.9
20260901092931 23 359 0.0 0.0 0.00 0.00 0.00 98 1018.8
20260901092427 23 359 0.0 0.0 0.00 0.00 0.00 98 1018.8
20260901091922 23 359 0.0 0.0 0.00 0.00 0.00 98 1018.7
20260901091422 23 359 0.0 0.0 0.00 0.00 0.00 98 1018.7
20260901090917 23 359 0.0 0.0 0.00 0.00 0.00 98 1018.7
20260901090417 23 359 0.0 0.0 0.00 0.00 0.00 98 1018.8
20260901085913 23 359 0.0 0.0 0.00 0.00 0.00 98 1018.8
20260901085409 23 359 0.0 0.0 0.00 0.00 0.00 98 1018.6
20260901084905 23 359 0.0 0.0 0.00 0.00 0.00 98 1018.7
20260901084401 23 359 0.0 0.0 0.00 0.00 0.00 97 1018.7
20260901083855 24 359 0.0 0.0 0.00 0.00 0.00 97 1018.6
20260901083350 24 359 0.0 0.0 0.00 0.00 0.00 97 1018.4
20260901082848 24 359 0.0 1.6 0.00 0.00 0.00 97 1018.5
20260901082344 24 359 0.0 0.0 0.00 0.00 0.00 97 1018.6
20260901081838 24 359 0.0 0.0 0.00 0.00 0.00 97 1018.4
20260901081333 23 359 0.0 0.0 0.00 0.00 0.00 97 1018.5
20260901080827 24 359 0.0 0.0 0.00 0.00 0.00 97 1018.7
20260901080322 24 359 0.0 0.0 0.00 0.00 0.00 97 1018.6
20260901075816 24 359 0.0 0.0 0.00 0.00 0.00 96 1018.5
20260901075311 24 359 0.0 1.6 0.00 0.00 0.00 96 1018.5
20260901074807 24 359 0.0 0.0 0.00 0.00 0.00 96 1018.4
20260901074301 24 359 0.0 0.0 0.00 0.00 0.00 96 1018.6
20260901073756 24 359 0.0 0.0 0.00 0.00 0.00 96 1018.2
20260901073252 24 359 0.0 0.0 0.00 0.00 0.00 96 1018.2
20260901072747 24 359 0.0 0.0 0.00 0.00 0.00 96 1018.4
20260901072242 24 359 0.0 0.0 0.00 0.00 0.00 96 1018.5
20260901071736 24 359 0.0 0.0 0.00 0.00 0.00 96 1018.3
20260901071230 24 359 0.0 0.0 0.00 0.00 0.00 96 1018.4
20260901070724 24 359 0.0 0.0 0.00 0.00 0.00 96 1018.5
20260901070219 24 359 0.0 0.0 0.00 0.00 0.00 96 1018.6
20260901065719 24 359 0.0 0.0 0.00 0.00 0.00 95 1018.6
20260901065214 25 359 0.0 0.0 0.00 0.00 0.00 95 1018.5
20260901064710 25 359 0.0 0.0 0.00 0.00 0.00 95 1018.6
20260901064206 25 359 0.0 0.0 0.00 0.00 0.00 95 1018.5
20260901063703 25 359 0.0 0.0 0.00 0.00 0.00 94 1018.3
20260901063159 25 359 0.0 0.0 0.00 0.00 0.00 94 1018.7
20260901062654 25 359 0.0 0.0 0.00 0.00 0.00 94 1018.7
20260901062150 25 359 0.0 0.0 0.00 0.00 0.00 94 1018.6
20260901061646 25 359 0.0 0.0 0.00 0.00 0.00 94 1018.7
20260901061146 25 358 0.0 0.0 0.00 0.00 0.00 94 1018.6
20260901060641 25 358 0.0 0.0 0.00 0.00 0.00 94 1018.7
20260901060136 25 358 0.0 0.0 0.00 0.00 0.00 93 1018.6
20260901055632 25 4 0.0 1.6 0.00 0.00 0.00 93 1018.7
20260901055128 25 5 0.0 0.0 0.00 0.00 0.00 93 1018.8
20260901054625 25 5 0.0 0.0 0.00 0.00 0.00 93 1018.8
20260901054121 26 5 0.0 0.0 0.00 0.00 0.00 93 1018.6
20260901053617 26 5 1.6 1.6 0.00 0.00 0.00 93 1018.7
20260901053114 26 5 0.0 1.6 0.00 0.00 0.00 93 1018.6
20260901052612 25 5 0.0 0.0 0.00 0.00 0.00 92 1018.7
20260901052108 25 5 0.0 1.6 0.00 0.00 0.00 92 1018.6
20260901051607 25 5 0.0 0.0 0.00 0.00 0.00 92 1018.8
20260901051106 25 5 0.0 0.0 0.00 0.00 0.00 93 1018.7
20260901050602 25 5 0.0 0.0 0.00 0.00 0.00 93 1018.7
20260901050056 25 5 0.0 0.0 0.00 0.00 0.00 92 1018.5
20260901045552 25 5 0.0 0.0 0.00 0.00 0.00 92 1018.6
20260901045046 25 5 0.0 0.0 0.00 0.00 0.00 91 1018.6
20260901044542 25 5 0.0 0.0 0.00 0.00 0.00 91 1018.6
20260901044038 25 5 0.0 0.0 0.00 0.00 0.00 91 1018.6
20260901043533 26 5 0.0 0.0 0.00 0.00 0.00 91 1018.7
20260901043029 26 5 0.0 0.0 0.00 0.00 0.00 91 1018.4
20260901042528 26 5 0.0 0.0 0.00 0.00 0.00 91 1018.6
20260901042024 26 5 0.0 0.0 0.00 0.00 0.00 90 1018.8
20260901041519 26 5 0.0 0.0 0.00 0.00 0.00 90 1018.6
20260901041014 26 5 0.0 0.0 0.00 0.00 0.00 89 1018.5
20260901040508 26 5 0.0 0.0 0.00 0.00 0.00 89 1018.7
20260901040008 26 5 0.0 1.6 0.00 0.00 0.00 88 1018.8
20260901035506 26 5 0.0 0.0 0.00 0.00 0.00 88 1018.5
20260901035005 26 6 1.6 1.6 0.00 0.00 0.00 89 1018.7
20260901034504 26 4 0.0 0.0 0.00 0.00 0.00 89 1018.4
20260901033959 26 4 0.0 0.0 0.00 0.00 0.00 89 1018.5
20260901033458 26 4 0.0 0.0 0.00 0.00 0.00 90 1018.4
20260901032957 27 4 0.0 1.6 0.00 0.00 0.00 90 1018.4
20260901032452 27 4 0.0 0.0 0.00 0.00 0.00 89 1018.4
20260901031947 27 4 0.0 0.0 0.00 0.00 0.00 89 1018.2
20260901031443 27 4 0.0 0.0 0.00 0.00 0.00 89 1018.4
20260901030942 27 4 0.0 0.0 0.00 0.00 0.00 88 1018.4
20260901030438 27 4 0.0 0.0 0.00 0.00 0.00 87 1018.5
20260901025937 27 4 0.0 0.0 0.00 0.00 0.00 87 1018.5
20260901025432 27 4 0.0 0.0 0.00 0.00 0.00 86 1018.3
20260901024931 27 4 0.0 0.0 0.00 0.00 0.00 86 1018.4
20260901024426 27 4 0.0 0.0 0.00 0.00 0.00 86 1018.2
20260901023924 27 4 0.0 0.0 0.00 0.00 0.00 86 1018.3
20260901023419 27 4 0.0 0.0 0.00 0.00 0.00 85 1018.2
20260901022914 27 4 0.0 0.0 0.00 0.00 0.00 84 1018.1
20260901022410 27 4 0.0 0.0 0.00 0.00 0.00 84 1018.1
20260901021905 28 4 0.0 0.0 0.00 0.00 0.00 83 1018.0
20260901021401 28 4 0.0 0.0 0.00 0.00 0.00 82 1018.0
20260901020855 28 4 0.0 0.0 0.00 0.00 0.00 82 1017.9
20260901020351 28 4 0.0 0.0 0.00 0.00 0.00 82 1017.8
20260901015850 28 4 0.0 0.0 0.00 0.00 0.00 81 1017.8
20260901015347 28 4 0.0 0.0 0.00 0.00 0.00 81 1017.8
20260901014846 28 4 0.0 0.0 0.00 0.00 0.00 80 1018.1
20260901014342 28 4 0.0 0.0 0.00 0.00 0.00 79 1018.0
20260901013837 28 4 0.0 0.0 0.00 0.00 0.00 78 1017.7
20260901013333 28 4 0.0 0.0 0.00 0.00 0.00 78 1017.6
20260901012828 28 4 0.0 0.0 0.00 0.00 0.00 78 1017.7
20260901012323 28 4 0.0 0.0 0.00 0.00 0.00 76 1017.4
20260901011819 28 4 0.0 0.0 0.00 0.00 0.00 75 1017.5
20260901011314 28 4 0.0 0.0 0.00 0.00 0.00 74 1017.6
20260901010808 28 4 0.0 0.0 0.00 0.00 0.00 74 1017.4
20260901010302 28 4 0.0 0.0 0.00 0.00 0.00 74 1017.5
20260901005801 29 4 0.0 0.0 0.00 0.00 0.00 74 1017.3
20260901005256 29 4 0.0 0.0 0.00 0.00 0.00 74 1017.4
20260901004750 29 4 0.0 0.0 0.00 0.00 0.00 72 1017.3
20260901004245 30 4 0.0 0.0 0.00 0.00 0.00 71 1017.2
20260901003745 30 4 0.0 0.0 0.00 0.00 0.00 70 1017.6
20260901003239 30 4 0.0 0.0 0.00 0.00 0.00 71 1017.4
20260901002733 30 4 0.0 0.0 0.00 0.00 0.00 71 1017.2
20260901002228 30 4 0.0 0.0 0.00 0.00 0.00 70 1017.5
20260901001723 31 4 0.0 0.0 0.00 0.00 0.00 69 1017.3
20260901001219 31 4 0.0 0.0 0.00 0.00 0.00 67 1017.4
20260901000714 31 4 0.0 0.0 0.00 0.00 0.00 68 1017.6
20260901000211 31 4 0.0 0.0 0.00 0.00 0.00 67 1017.3
20260831235702 32 4 0.0 0.0 0.00 0.00 0.00 65 1017.4
20260831235158 32 4 0.0 0.0 0.00 0.00 0.00 67 1017.3
20260831234658 32 4 0.0 0.0 0.00 0.00 0.00 65 1017.4
20260831234153 32 4 0.0 0.0 0.00 0.00 0.00 66 1017.4
20260831233648 33 4 0.0 0.0 0.00 0.00 0.00 63 1017.4
20260831233143 33 4 0.0 0.0 0.00 0.00 0.00 63 1017.6
20260831232638 34 4 0.0 0.0 0.00 0.00 0.00 59 1017.6
20260831232134 35 4 0.0 0.0 0.00 0.00 0.00 59 1017.5
20260831231630 35 4 0.0 0.0 0.00 0.00 0.00 58 1017.6
20260831231126 35 4 0.0 0.0 0.00 0.00 0.00 54 1017.7
20260831230621 35 4 0.0 0.0 0.00 0.00 0.00 54 1017.9
20260831230121 35 4 0.0 1.6 0.00 0.00 0.00 51 1017.4
20260831225610 35 5 0.0 1.6 0.00 0.00 0.00 52 1017.9
20260831225105 36 2 0.0 0.0 0.00 0.00 0.00 51 1017.8
20260831224600 36 10 0.0 1.6 0.00 0.00 0.00 51 1017.6
20260831224055 36 6 0.0 0.0 0.00 0.00 0.00 49 1017.9
20260831223551 35 6 0.0 1.6 0.00 0.00 0.00 49 1017.9
20260831223047 36 0 0.0 1.6 0.00 0.00 0.00 49 1017.9
20260831222543 36 34 3.2 3.2 0.00 0.00 0.00 48 1017.9
20260831222042 36 342 0.0 1.6 0.00 0.00 0.00 48 1017.9
20260831221538 37 311 1.6 1.6 0.00 0.00 0.00 50 1017.7
20260831221033 37 330 0.0 0.0 0.00 0.00 0.00 49 1017.7
20260831220528 36 316 0.0 1.6 0.00 0.00 0.00 49 1017.7
20260831220024 36 290 1.6 3.2 0.00 0.00 0.00 51 1017.9
20260831215519 36 355 0.0 1.6 0.00 0.00 0.00 49 1017.9
20260831215015 36 287 1.6 3.2 0.00 0.00 0.00 51 1017.8
20260831214513 36 182 3.2 3.2 0.00 0.00 0.00 51 1018.0
20260831214008 36 284 1.6 3.2 0.00 0.00 0.00 50 1017.9
20260831213504 36 289 3.2 4.8 0.00 0.00 0.00 50 1018.0
20260831212959 36 303 0.0 3.2 0.00 0.00 0.00 49 1017.8
20260831212455 36 352 0.0 0.0 0.00 0.00 0.00 48 1018.0
20260831211955 36 252 1.6 3.2 0.00 0.00 0.00 50 1018.1
20260831211450 36 233 0.0 1.6 0.00 0.00 0.00 48 1018.2
20260831210949 36 286 3.2 3.2 0.00 0.00 0.00 49 1018.3
20260831210444 36 297 1.6 3.2 0.00 0.00 0.00 48 1018.4
20260831205940 36 352 1.6 1.6 0.00 0.00 0.00 49 1018.5
20260831205436 36 275 3.2 3.2 0.00 0.00 0.00 50 1018.4
20260831204931 36 287 3.2 3.2 0.00 0.00 0.00 47 1018.3
20260831204431 36 322 0.0 1.6 0.00 0.00 0.00 49 1018.4
20260831203930 36 302 1.6 3.2 0.00 0.00 0.00 49 1018.7
20260831203424 36 12 1.6 3.2 0.00 0.00 0.00 50 1018.4
20260831202922 35 334 0.0 3.2 0.00 0.00 0.00 52 1018.5
20260831202418 36 317 0.0 3.2 0.00 0.00 0.00 51 1018.5
20260831201912 36 292 1.6 3.2 0.00 0.00 0.00 51 1018.7
20260831201411 36 316 0.0 3.2 0.00 0.00 0.00 50 1018.5
20260831200907 36 304 0.0 1.6 0.00 0.00 0.00 49 1018.8
20260831200402 36 352 1.6 3.2 0.00 0.00 0.00 50 1018.7
20260831195856 36 17 3.2 4.8 0.00 0.00 0.00 51 1018.8
20260831195352 36 333 1.6 3.2 0.00 0.00 0.00 52 1018.9
20260831194847 36 343 3.2 3.2 0.00 0.00 0.00 51 1019.0
20260831194343 36 339 0.0 1.6 0.00 0.00 0.00 52 1019.0
20260831193842 35 291 1.6 4.8 0.00 0.00 0.00 57 1019.2
20260831193337 37 287 1.6 1.6 0.00 0.00 0.00 52 1018.9
20260831192832 36 324 0.0 1.6 0.00 0.00 0.00 50 1019.1
20260831192332 35 323 3.2 8.0 0.00 0.00 0.00 54 1019.4
20260831191828 36 295 1.6 3.2 0.00 0.00 0.00 52 1019.4
20260831191324 36 352 1.6 3.2 0.00 0.00 0.00 52 1019.2
20260831190819 35 327 0.0 3.2 0.00 0.00 0.00 55 1019.3
20260831190314 36 279 4.8 8.0 0.00 0.00 0.00 51 1019.2
20260831185814 35 325 1.6 8.0 0.00 0.00 0.00 56 1019.6
20260831185309 35 336 1.6 3.2 0.00 0.00 0.00 53 1019.3
20260831184808 36 276 4.8 4.8 0.00 0.00 0.00 54 1019.3
20260831184304 36 321 0.0 1.6 0.00 0.00 0.00 53 1019.4
20260831183759 35 327 1.6 1.6 0.00 0.00 0.00 55 1019.7
20260831183258 35 279 3.2 8.0 0.00 0.00 0.00 55 1019.8
20260831182758 35 354 0.0 4.8 0.00 0.00 0.00 57 1020.0
20260831182253 35 244 4.8 4.8 0.00 0.00 0.00 54 1019.9
20260831181748 35 277 4.8 4.8 0.00 0.00 0.00 56 1019.7
20260831181243 35 293 6.4 9.7 0.00 0.00 0.00 53 1019.8
20260831180743 35 301 1.6 4.8 0.00 0.00 0.00 56 1020.0
20260831180238 35 332 1.6 8.0 0.00 0.00 0.00 56 1020.0
20260831175737 35 332 1.6 8.0 0.00 0.00 0.00 56 1020.3
20260831175234 34 354 3.2 8.0 0.00 0.00 0.00 56 1020.1
20260831174729 35 336 1.6 4.8 0.00 0.00 0.00 55 1020.3
20260831174225 33 268 4.8 8.0 0.00 0.00 0.00 60 1020.6
20260831173724 34 247 1.6 4.8 0.00 0.00 0.00 61 1020.4
20260831173218 33 323 0.0 8.0 0.00 0.00 0.00 60 1020.5
20260831172713 35 248 8.0 12.9 0.00 0.00 0.00 58 1020.8
20260831172208 33 345 0.0 3.2 0.00 0.00 0.00 59 1020.6
20260831171703 33 254 8.0 9.7 0.00 0.00 0.00 60 1020.6
20260831171201 33 295 3.2 8.0 0.00 0.00 0.00 63 1020.7
20260831170656 33 219 6.4 11.3 0.00 0.00 0.00 64 1020.8
20260831170153 33 268 3.2 3.2 0.00 0.00 0.00 62 1020.7
20260831165649 33 274 4.8 8.0 0.00 0.00 0.00 61 1020.9
20260831165145 33 329 1.6 4.8 0.00 0.00 0.00 64 1021.0
20260831164641 34 270 3.2 3.2 0.00 0.00 0.00 62 1020.8
20260831164136 33 319 3.2 8.0 0.00 0.00 0.00 65 1021.0
20260831163631 34 31 1.6 3.2 0.00 0.00 0.00 62 1021.2
20260831163127 33 325 1.6 1.6 0.00 0.00 0.00 64 1021.0
20260831162626 32 319 0.0 3.2 0.00 0.00 0.00 67 1021.0
20260831162124 32 347 1.6 4.8 0.00 0.00 0.00 66 1021.1
20260831161620 33 292 1.6 3.2 0.00 0.00 0.00 64 1021.1
20260831161117 32 314 0.0 8.0 0.00 0.00 0.00 67 1021.2
20260831160615 32 296 1.6 3.2 0.00 0.00 0.00 68 1021.1
20260831160111 32 286 3.2 8.0 0.00 0.00 0.00 69 1021.1
20260831155605 32 227 4.8 8.0 0.00 0.00 0.00 68 1021.3
20260831155101 32 259 3.2 4.8 0.00 0.00 0.00 69 1021.0
20260831154557 32 261 4.8 8.0 0.00 0.00 0.00 69 1021.3
20260831154056 32 290 3.2 3.2 0.00 0.00 0.00 70 1021.3
20260831153555 31 317 1.6 3.2 0.00 0.00 0.00 72 1021.3
20260831153053 31 320 0.0 1.6 0.00 0.00 0.00 70 1021.3
20260831152548 32 215 3.2 3.2 0.00 0.00 0.00 72 1021.4
20260831152044 31 323 1.6 4.8 0.00 0.00 0.00 71 1021.5
20260831151543 31 353 1.6 1.6 0.00 0.00 0.00 74 1021.2
20260831151037 31 18 0.0 3.2 0.00 0.00 0.00 75 1021.2
20260831150532 30 6 0.0 1.6 0.00 0.00 0.00 75 1021.2
20260831150028 30 332 1.6 3.2 0.00 0.00 0.00 77 1021.3
20260831145523 30 12 0.0 3.2 0.00 0.00 0.00 78 1021.2
20260831145019 30 22 3.2 3.2 0.00 0.00 0.00 78 1021.1
20260831144514 29 338 1.6 3.2 0.00 0.00 0.00 79 1021.0
20260831144010 29 354 0.0 1.6 0.00 0.00 0.00 78 1020.8
20260831143504 28 350 0.0 1.6 0.00 0.00 0.00 80 1020.9
20260831143000 28 348 0.0 1.6 0.00 0.00 0.00 81 1020.9
20260831142456 28 28 3.2 3.2 0.00 0.00 0.00 81 1020.9
20260831141955 28 342 0.0 0.0 0.00 0.00 0.00 82 1020.8
20260831141449 28 3 0.0 0.0 0.00 0.00 0.00 83 1020.7
20260831140944 27 331 0.0 1.6 0.00 0.00 0.00 83 1020.8
20260831140439 27 358 0.0 1.6 0.00 0.00 0.00 82 1020.7
20260831135938 27 357 0.0 1.6 0.00 0.00 0.00 83 1020.8
20260831135437 27 3 0.0 1.6 0.00 0.00 0.00 84 1020.8
20260831134932 27 11 1.6 1.6 0.00 0.00 0.00 85 1020.5
20260831134429 26 359 1.6 1.6 0.00 0.00 0.00 87 1020.8
20260831133929 26 327 1.6 1.6 0.00 0.00 0.00 87 1020.8
20260831133429 26 334 0.0 3.2 0.00 0.00 0.00 87 1020.7
20260831132924 26 340 0.0 0.0 0.00 0.00 0.00 87 1020.6
20260831132420 26 338 0.0 3.2 0.00 0.00 0.00 88 1020.7
20260831131919 26 354 0.0 0.0 0.00 0.00 0.00 88 1020.7
20260831131414 26 307 1.6 1.6 0.00 0.00 0.00 88 1020.6
20260831130910 26 332 0.0 3.2 0.00 0.00 0.00 89 1020.4
20260831130405 25 4 0.0 0.0 0.00 0.00 0.00 89 1020.5
20260831125904 25 4 0.0 1.6 0.00 0.00 0.00 90 1020.7